Regional Weather Roundup
Issued by NWS

Home | Current Version | Previous Version | Graphics & Text | Print | Product List | Glossary On
Versions: 1 2 3 4 5 6 7 8 9 10 11 12 13 14 15 16 17 18 19 20 21 22 23 24 25 26 27 28 29 30 31 32 33 34 35 36 37 38 39 40 41 42 43 44 45 46 47 48 49 50
000
ASUS43 KBIS 181510
RWRND

NORTH DAKOTA REGIONAL WEATHER ROUNDUP
NATIONAL WEATHER SERVICE BISMARCK ND
900 AM CST THU JAN 18 2018

NOTE: "FAIR" INDICATES FEW OR NO CLOUDS BELOW 12,000 FEET WITH NO
SIGNIFICANT WEATHER AND/OR OBSTRUCTIONS TO VISIBILITY.


NDZ001>003-009>011-017-181600-
NORTHWEST NORTH DAKOTA

CITY           SKY/WX    TMP DP  RH WIND       PRES   REMARKS
WILLISTON      FAIR      20  16  84 S5        29.74F WCI  13
MINOT          CLOUDY    27  19  72 SW13      29.72F WCI  16
MINOT AFB      CLOUDY    26  18  73 W12       29.70F WCI  15
$$

NDZ018>021-031>035-040>046-181600-
SOUTHWEST NORTH DAKOTA

CITY           SKY/WX    TMP DP  RH WIND       PRES   REMARKS
BISMARCK       CLOUDY    17  15  92 CALM      29.81F
DICKINSON      CLOUDY    28  20  71 SW8       29.77F WCI  20
GARRISON         N/A     17  14  88 CALM      29.76F
HETTINGER ARPT CLOUDY    28  19  69 NW3       29.83F
$$

NDZ004>008-012>016-024-026-027-054-181600-
NORTHEAST NORTH DAKOTA

CITY           SKY/WX    TMP DP  RH WIND       PRES   REMARKS
GRAND FORKS    FAIR      19  15  84 W9        29.78R WCI   8
GRND FRKS AFB  FAIR      23  15  72 NW8       29.77F WCI  14
DEVILS LAKE    FAIR      17  13  84 SW8       29.76S WCI   7
$$

NDZ022-023-025-028>030-036>039-047>053-181600-
SOUTHEAST NORTH DAKOTA

CITY           SKY/WX    TMP DP  RH WIND       PRES   REMARKS
FARGO            N/A    N/A N/A N/A MISG      29.80R
JAMESTOWN      CLOUDY    27  19  72 W7        29.78S WCI  19
$$





USA.gov is the U.S. government's official web portal to all federal, state and local government web resources and services.